Location: Arpaise
(41.0333°N, 14.7333°E)
Time: 07:29:02
(UTC+00:00)

PSLV R/B - Pass Details

Date: 05 July 2020
Orbit: 597 x 702 km, 97.9° (Epoch: 05 August)

Event Time Altitude Azimuth Distance (km) Brightness Sun altitude
Rises 23:30:42 0° 11° (N) 2,854 8.3 -26.0°
Reaches altitude 10° 23:32:52 10° 10° (N) 1,951 7.1 -26.0°
Enters shadow 23:36:34 66° 349° (NNW) 665 3.8 -25.9°
